FW2830 Weather Reports


time (UTC)temp
C
wind
direction
speed
KPH
gust
KPH
rain 1hr
cm
rain 24hr
cm
rain mn
cm
humidity
%
barometer
mb
20260504060104 3 207 9.7 27.4 0.05 1.80 0.15 100 973.5
20260504044539 3 144 16.1 33.8 0.05 1.73 0.08 100 975.2
20260504043037 3 132 6.4 32.2 0.05 1.70 0.05 100 976.4
20260504041531 3 116 19.3 33.8 0.05 1.68 0.05 100 976.8
20260504040028 3 188 11.3 32.2 0.03 1.65 0.03 100 978.4
20260504034524 3 214 4.8 19.3 0.03 1.65 0.03 100 978.8
20260504033019 3 165 17.7 30.6 0.00 1.65 0.00 100 979.6
20260504031516 3 181 8.0 25.7 0.00 1.65 0.00 100 980.2
20260504030011 4 212 9.7 24.1 0.00 1.65 0.00 100 980.8
20260504024511 4 169 14.5 30.6 0.03 1.65 1.65 100 981.3
20260504023006 5 191 4.8 41.8 0.03 1.65 1.65 100 981.8
20260504021504 5 139 11.3 27.4 0.05 1.65 1.65 100 982.5
20260504020002 5 168 6.4 16.1 0.08 1.65 1.65 100 982.6
20260504014559 3 23 0.0 6.4 0.13 1.63 1.63 100 983.6
20260504013054 3 21 1.6 9.7 0.18 1.63 1.63 100 984.4
20260504011552 3 21 4.8 12.9 0.18 1.57 1.57 100 985.2
20260504010048 3 15 11.3 22.5 0.23 1.55 1.55 100 986.4
20260504004545 2 31 8.0 25.7 0.23 1.50 1.50 100 987.3
20260504003043 3 61 16.1 35.4 0.33 1.42 1.42 100 988.0
20260504001538 2 81 16.1 32.2 0.46 1.40 1.40 100 989.2
20260504000042 2 60 12.9 27.4 0.48 1.32 1.32 100 989.6
20260503234533 2 65 17.7 33.8 0.51 1.27 1.27 100 989.9
20260503233036 2 39 12.9 35.4 0.36 1.09 1.09 100 991.2
20260503231524 2 43 14.5 32.2 0.25 0.94 0.94 100 992.4
20260503230021 2 54 11.3 29.0 0.20 0.84 0.84 100 993.4
20260503224526 2 51 12.9 27.4 0.20 0.79 0.79 100 994.4
20260503223014 2 39 9.7 33.8 0.28 0.71 0.71 100 995.1
20260503221511 2 77 16.1 29.0 0.30 0.69 0.69 100 995.6
20260503220018 2 85 11.3 24.1 0.41 0.64 0.64 100 996.3
20260503214510 2 41 16.1 29.0 0.33 0.56 0.56 100 996.5
20260503213008 1 29 8.0 27.4 0.25 0.46 0.46 100 995.9
20260503211505 1 42 11.3 22.5 0.15 0.36 0.36 100 996.9
20260503210100 1 29 11.3 30.6 0.05 0.23 0.23 100 998.0
20260503204558 1 71 14.5 29.0 0.05 0.23 0.23 99 998.5
20260503203056 1 74 9.7 25.7 0.05 0.20 0.20 99 999.8
20260503201552 1 86 11.3 30.6 0.05 0.20 0.20 99 1000.4
20260503200049 1 85 9.7 24.1 0.10 0.18 0.18 98 1001.0
20260503194550 1 68 9.7 24.1 0.15 0.18 0.18 98 1001.6
20260503193044 1 48 11.3 24.1 0.15 0.15 0.15 97 1002.4
20260503191540 2 82 8.0 20.9 0.15 0.15 0.15 97 1003.1
20260503190042 2 360 8.0 17.7 0.08 0.08 0.08 96 1003.6
20260503184553 2 55 6.4 16.1 0.03 0.03 0.03 95 1005.2
20260503183035 3 58 8.0 20.9 0.00 0.00 0.00 93 1005.5
20260503181533 3 22 8.0 17.7 0.00 0.00 0.00 92 1005.9
20260503180034 3 69 4.8 14.5 0.00 0.00 0.00 92 1007.0
20260503174531 3 45 3.2 16.1 0.00 0.00 0.00 91 1007.2
20260503173032 4 71 9.7 16.1 0.00 0.00 0.00 89 1008.0
20260503171521 4 83 9.7 17.7 0.00 0.00 0.00 89 1008.4
20260503130151 8 85 3.2 12.9 0.00 0.00 0.00 79 1012.3
20260503081602 1 203 1.6 6.4 0.00 0.05 0.00 100 1015.5
20260503080108 1 203 4.8 9.7 0.00 0.05 0.00 100 1015.5
20260503071607 1 203 4.8 11.3 0.00 0.10 0.00 100 1015.7